Location: Newark
(39.0083°N, 20.7336°E)
Time: 09:25:04
(UTC+00:00)

Nauka - Pass Details

Date: 01 October 2021
Orbit: 417 x 423 km, 51.6° (Epoch: 26 October)

Event Time Altitude Azimuth Distance (km) Brightness Sun altitude
Rises 18:19:29 0° 312° (NW) 2,366 ? -23.9°
Reaches altitude 10° 18:21:40 10° 320° (NW) 1,500 ? -24.3°
Enters shadow 18:23:20 25° 336° (NNW) 896 ? -24.6°
